[[{"header":{"parameterUnit":"m.s-1","parameterCategory":1,"la1":30.2992,"la2":30.254,"lo1":-89.0895,"lo2":-89.0443,"dy":0.0025,"dx":0.0025,"nx":19,"ny":19,"refTime":"2026-05-10T03:00:00:Z","depth":0,"parameterNumber":2,"parameterNumberName":"U-component_of_WINDS"},"data":[0,0,0,-0.413,-0.4128,-0.4011,-0.4011,-0.3868,-0.3866,0,0,0,0,0,0,0,0,0,0,0,-0.417,-0.417,-0.4131,-0.4128,-0.4011,-0.4011,-0.3868,-0.3866,0,0,0,0,0,0,0,0,0,0,0,-0.4171,-0.417,-0.4169,-0.4127,-0.4011,-0.4011,-0.3868,-0.3953,0,0,0,0,0,0,0,0,0,0,-0.4066,-0.4108,-0.417,-0.4169,-0.4127,-0.4012,-0.4011,-0.3957,-0.3948,-0.3924,0,-0.3905,0,-0.3884,-0.3857,-0.3857,0,0,0,-0.4123,-0.4116,-0.408,-0.4169,-0.4126,-0.4012,-0.4063,-0.3952,-0.3942,-0.3911,-0.3903,-0.3897,-0.3881,-0.3856,-0.3856,-0.3734,-0.3734,0,0,-0.413,-0.4152,-0.4087,-0.4073,-0.4094,-0.4066,-0.4059,-0.3946,-0.3937,-0.3902,-0.3894,-0.3879,-0.3856,-0.3855,-0.3734,-0.3734,0,0,0,-0.4151,-0.4156,-0.4123,-0.408,-0.4058,-0.4063,-0.4055,-0.3942,-0.3929,-0.3892,-0.3877,-0.3855,-0.3853,-0.3735,-0.3734,-0.3738,0,0,0,-0.4155,-0.4169,-0.4126,-0.4138,-0.4061,-0.3999,-0.4054,-0.3937,-0.3924,-0.3878,-0.3855,-0.3852,-0.3735,-0.3735,-0.3739,-0.3735,0,0,0,-0.4176,-0.4171,-0.4157,-0.414,-0.4091,-0.4,-0.3981,-0.3934,-0.3915,-0.3857,-0.3851,-0.3735,-0.3735,-0.3739,-0.3736,-0.3709,0,0,0,-0.4204,-0.4161,-0.4157,-0.4103,-0.4092,-0.4005,-0.3981,-0.3915,-0.3866,-0.3854,-0.3735,-0.3734,-0.374,-0.3737,-0.371,-0.3689,-0.3683,0,0,-0.4161,-0.4156,-0.4123,-0.4116,-0.4036,-0.4021,-0.394,-0.3873,-0.3847,-0.3773,-0.3769,-0.3739,-0.3736,-0.3709,-0.3644,-0.364,0,0,0,-0.4116,-0.4092,-0.4066,-0.4022,-0.3971,-0.3927,-0.3871,-0.3846,-0.3783,-0.3814,-0.3722,-0.372,-0.3703,-0.3691,-0.3687,-0.3671,-0.3731,-0.3731,-0.3731,-0.4085,-0.4056,-0.3998,-0.3954,-0.3912,-0.3855,-0.3817,-0.3774,-0.3755,-0.3734,-0.3711,-0.3676,-0.3663,-0.366,-0.3643,-0.3699,-0.3699,-0.3699,-0.3699,-0.4018,-0.3978,-0.3957,-0.3893,-0.3862,-0.3807,-0.3752,-0.3741,-0.3684,-0.369,-0.3674,-0.3681,-0.3656,-0.3639,-0.3699,-0.3699,-0.3699,-0.3699,-0.3699,-0.3992,-0.3967,-0.394,-0.3874,-0.3825,-0.3783,-0.373,-0.3704,-0.3678,-0.3662,-0.3634,-0.3634,-0.3629,-0.3652,-0.3651,-0.3651,-0.3651,-0.3651,-0.3651,-0.3974,-0.3944,-0.3903,-0.3848,-0.3817,-0.3771,-0.3716,-0.3683,-0.364,-0.3624,-0.3624,-0.3607,-0.366,-0.3673,-0.3649,-0.3649,-0.365,-0.365,-0.365,-0.3913,-0.3923,-0.3861,-0.3829,-0.3762,-0.3716,-0.3684,-0.362,-0.359,-0.3564,-0.3552,-0.3597,-0.3588,-0.3591,-0.3601,-0.356,-0.356,-0.356,-0.356,-0.3889,-0.3884,-0.3814,-0.3766,-0.3715,-0.3681,-0.361,-0.3567,-0.3524,-0.3502,-0.3505,-0.3518,-0.3522,-0.3511,-0.3515,-0.3524,-0.3464,-0.3464,-0.3464,-0.3848,-0.3838,-0.3782,-0.3743,-0.3689,-0.3643,-0.3575,-0.3518,-0.3471,-0.3459,-0.3485,-0.3489,-0.3508,-0.3517,-0.3502,-0.351,-0.3526,0,0]},{"header":{"parameterUnit":"m.s-1","parameterCategory":1,"la1":30.2992,"la2":30.254,"lo1":-89.0895,"lo2":-89.0443,"dy":0.0025,"dx":0.0025,"nx":19,"ny":19,"refTime":"2026-05-10T03:00:00:Z","depth":0,"parameterNumber":3,"parameterNumberName":"V-component_of_WINDS"},"data":[0,0,0,2.4977,2.4978,2.4985,2.4985,2.5007,2.5007,0,0,0,0,0,0,0,0,0,0,0,2.4982,2.4983,2.4977,2.4978,2.4985,2.4985,2.5007,2.5007,0,0,0,0,0,0,0,0,0,0,0,2.4982,2.4982,2.4983,2.4978,2.4985,2.4985,2.5007,2.4997,0,0,0,0,0,0,0,0,0,0,2.4987,2.4999,2.4982,2.4983,2.4978,2.4985,2.4985,2.4996,2.4998,2.5009,0,2.502,0,2.5014,2.501,2.501,0,0,0,2.4972,2.4998,2.4993,2.4983,2.4978,2.4985,2.498,2.4997,2.4998,2.501,2.5021,2.5021,2.5015,2.501,2.501,2.5091,2.5092,0,0,2.4972,2.4987,2.4992,2.4995,2.4994,2.498,2.4981,2.4998,2.501,2.5021,2.5021,2.5015,2.501,2.501,2.5091,2.5091,0,0,0,2.4974,2.4987,2.4982,2.4994,2.4995,2.4981,2.4981,2.5009,2.5006,2.5021,2.5015,2.501,2.5011,2.509,2.5091,2.5137,0,0,0,2.4974,2.4989,2.4982,2.4992,2.4995,2.5002,2.4992,2.5005,2.5006,2.5015,2.501,2.5011,2.5089,2.509,2.5135,2.5157,0,0,0,2.4979,2.4989,2.4993,2.4993,2.4997,2.5001,2.4999,2.5005,2.5003,2.501,2.5011,2.5089,2.509,2.5132,2.5153,2.5184,0,0,0,2.499,2.5034,2.4994,2.5041,2.4997,2.503,2.4999,2.5022,2.5034,2.501,2.5089,2.5091,2.5131,2.515,2.5181,2.5213,2.5227,0,0,2.5055,2.5043,2.5069,2.5033,2.5077,2.5027,2.5078,2.5074,2.506,2.5082,2.5083,2.5136,2.5153,2.5183,2.5301,2.5313,0,0,0,2.5095,2.5114,2.5122,2.5134,2.5132,2.5132,2.5118,2.5116,2.5134,2.5074,2.5154,2.5164,2.5181,2.5195,2.5205,2.5219,2.5098,2.5098,2.5097,2.521,2.519,2.5232,2.5213,2.5225,2.521,2.5217,2.5213,2.5189,2.5208,2.5215,2.5289,2.5306,2.5314,2.5329,2.5229,2.5229,2.5229,2.5229,2.5304,2.5329,2.5296,2.5325,2.5303,2.5328,2.5315,2.5297,2.5317,2.5282,2.5296,2.5261,2.5327,2.5339,2.5233,2.5232,2.5232,2.5231,2.5231,2.5379,2.5387,2.5384,2.5398,2.5411,2.5389,2.541,2.5389,2.537,2.5384,2.5389,2.5388,2.5385,2.5387,2.5387,2.5388,2.5388,2.5388,2.5388,2.5458,2.5452,2.5472,2.5473,2.5477,2.548,2.5465,2.5469,2.5468,2.5451,2.5451,2.5426,2.5337,2.5315,2.5392,2.5392,2.5391,2.5391,2.539,2.5563,2.5536,2.5566,2.5571,2.5569,2.5584,2.5556,2.5566,2.5566,2.5577,2.5548,2.5485,2.5472,2.5464,2.5446,2.5552,2.5552,2.5552,2.5552,2.5627,2.5617,2.5644,2.5652,2.5658,2.5636,2.5671,2.566,2.5643,2.5642,2.5623,2.5598,2.559,2.5581,2.5571,2.5554,2.5685,2.5685,2.5685,2.5691,2.5681,2.5715,2.5698,2.5695,2.5693,2.5726,2.5737,2.5713,2.569,2.5641,2.5635,2.5593,2.5581,2.5558,2.5542,2.5511,0,0]}]]